Location: Amarillo Post Office Jordan Station
(35.1907°N, 101.9342°W)
Time: 12:14:27
(UTC+00:00)

Meteor 2-13 Rocket - Pass Details

Date: 24 January 2021
Orbit: 936 x 958 km, 82.5° (Epoch: 03 March)

Event Time Altitude Azimuth Distance (km) Brightness Sun altitude
Rises 12:06:16 0° 352° (N) 3,643 7.3 -21.6°
Reaches altitude 10° 12:08:47 10° 353° (N) 2,693 6.6 -21.1°
Maximum altitude 12:14:58 88° 263° (W) 960 4.4 -19.8°
Drops below altitude 10° 12:21:05 10° 176° (S) 2,667 7.0 -18.6°
Sets 12:23:33 0° 176° (S) 3,606 7.7 -18.1°
